Terminal Aerodrome Forecast
Issued by NWS

Home | Current Version | Previous Version | Graphics & Text | Print | Product List | Glossary On
Versions: 1 2 3 4 5 6 7 8 9 10 11 12 13 14 15 16 17 18 19 20 21 22
000
FTUS43 KABR 280522
TAFMBG
TAF
KMBG 280522Z 2806/2906 VRB03KT P6SM SKC
      TEMPO 2806/2808 3SM BR
     FM280800 VRB03KT 1SM BR SKC
     FM281400 18009KT P6SM SKC=

USA.gov is the U.S. government's official web portal to all federal, state and local government web resources and services.